Starlink 33708

operational
NORAD ID: 63405 Int'l Des: 2025-065 Owner: SPXS Country: US Constellation: starlink
LEOCIRCULAR

Starlink 33708について

説明を読み込み中...

リアルタイム位置

3D地球を読み込み中...

次回通過

高度履歴

Altitude vs Time

uPlot chart will show altitude changes over time

軌道要素

1 63405U 25065G 25351.90805556 .00013275 00000-0 49070-3 0 9991
2 63405 42.9977 208.8376 0001038 260.9668 99.1066 15.27604321 40333
Epoch: Dec 17, 2025 • Age: 10 hours

現在のステータス

高度 486.7 km
速度 7.63 km/s
衛星直下点 42.57°N, 84.3°E
打ち上げ日 Mar 31, 2025
運用期間 0.7 years
タイプ internet

技術仕様

分類 Payload
質量 575.00 kg
乾燥質量 530.00 kg
総質量 575.00 kg
長さ 0.30 m
直径 4.10 m
スパン 29.00 m
形状 Box + pan
製造者 SPXS
バスタイプ Starlink V2MO
フェーズステータス In Orbit
所有者/国 SPXS/US

大規模コンステレーション

Loading constellations...